Location: W�rzburg
(49.7529°N, 9.8822°E)
Time: 08:21:05
(UTC+01:00)

ISS - Pass Details

Date: 13 November 2017
Orbit: 402 x 407 km, 51.6° (Epoch: 22 November)

Event Time Altitude Azimuth Distance (km) Brightness Sun altitude
Exits shadow 05:02:32 40° 93° (E) 609 -2.5 -23.6°
Drops below altitude 10° 05:04:46 10° 101° (E) 1,455 0.0 -23.3°
Sets 05:06:50 0° 103° (ESE) 2,313 1.4 -22.9°
